Cloud_Cover
100 99 100 100 100 100 100 100 5 79 5 0 0 0 0 0 7 0 0 0 0 0 0 0 0 0 0 0 0 0 0 0 0 0 0 0 0 0 0 0 0 0 0 0 0
30 100 100 100 98 57 66 88 92 5 0 0 0 0 0 2 0 0 0 0 0 0 0 0 0 0 0 0 0 0 0 0 0 0 0 0 0 0 0 0 0 0 0 0 0
100 100 100 17 5 26 12 6 5 0 0 0 0 0 0 0 0 0 0 0 0 0 0 0 0 0 0 0 0 0 0 0 0 0 0 0 0 0 0 0 0 0 0 0 0
100 100 96 46 11 17 0 0 0 2 4 0 0 0 0 0 0 0 0 0 0 0 0 0 0 0 0 0 0 0 0 0 0 0 0 0 0 0 0 0 0 0 0 0 0
100 100 99 26 36 7 2 0 2 5 1 0 0 0 0 0 0 0 0 0 0 0 0 0 0 0 0 0 0 0 0 0 0 0 0 0 0 0 0 0 0 0 0 0 0
100 43 90 10 13 5 2 0 5 5 5 5 2 0 0 0 0 0 0 0 0 0 0 0 0 0 0 0 0 0 0 0 0 0 0 0 0 0 0 0 1 0 4 4 2
100 77 86 5 5 1 0 3 50 5 5 2 0 0 0 0 0 0 0 0 0 0 0 0 0 0 0 0 0 0 0 0 0 0 0 0 0 0 2 16 3 5 5 2 3
100 14 65 8 5 1 5 5 5 5 2 0 0 0 0 0 0 0 0 0 0 0 0 0 0 0 0 0 0 0 0 0 0 0 0 0 3 0 0 0 0 0 0 0 0
100 54 47 25 5 5 5 6 5 5 5 0 0 0 0 0 0 0 0 0 0 0 0 0 0 0 0 0 0 0 0 0 0 0 0 0 0 0 0 0 0 0 0 0 2
83 98 61 48 5 5 5 5 5 5 14 4 0 0 0 0 0 0 0 0 0 0 0 0 0 0 0 0 0 0 0 0 0 0 0 0 0 0 0 0 0 0 0 0 4
100 100 100 13 5 5 12 5 5 5 5 5 5 5 0 0 0 0 0 0 0 0 0 0 0 0 0 0 0 0 0 0 0 0 0 0 1 0 0 0 0 0 5 5 5
100 25 94 39 5 5 10 5 5 5 5 5 5 5 0 0 0 0 0 0 0 0 0 0 0 0 0 0 0 0 0 0 0 0 0 0 0 0 0 5 5 49 55 37 5
100 100 21 6 5 29 5 5 5 5 5 5 5 5 0 0 0 0 0 0 0 0 0 0 0 0 0 0 5 1 1 0 0 0 0 0 2 4 5 5 72 78 8 26 5
100 92 64 18 37 5 5 5 5 5 5 5 5 4 0 0 0 0 0 0 0 0 0 2 0 4 1 5 10 5 5 0 0 0 2 0 4 8 5 6 63 95 100 22 5
100 46 54 100 31 10 5 5 5 5 5 5 5 5 0 0 0 0 0 0 0 0 0 5 5 5 5 5 83 90 5 2 0 5 5 4 5 5 13 99 100 100 94 10 1
99 50 98 90 34 31 19 5 5 5 5 5 5 5 5 2 5 5 0 0 3 0 4 5 5 5 21 16 100 97 5 70 16 49 69 5 4 69 100 100 96 34 29 2 0
100 100 96 90 98 46 81 29 5 5 31 5 29 5 5 5 5 5 5 5 5 5 3 0 5 5 80 95 100 18 5 5 10 5 5 36 99 100 75 33 96 8 5 5 5
98 100 100 46 100 99 67 100 5 5 12 13 5 5 5 5 5 5 5 5 5 5 4 0 5 5 27 79 99 5 6 19 43 6 93 99 100 73 75 26 18 15 8 49 4
93 84 100 28 100 96 88 91 78 52 45 66 5 6 5 5 52 33 15 5 5 5 5 3 1 5 5 15 27 26 32 96 82 35 93 64 80 94 22 87 100 12 84 5 5
80 100 100 45 91 83 82 94 88 94 66 48 8 50 15 47 6 52 64 5 5 16 2 5 5 5 5 12 7 43 6 6 36 69 19 93 41 23 83 87 66 44 5 2 5
100 100 100 41 100 100 100 96 100 98 64 45 57 55 62 94 62 48 9 8 5 43 14 4 5 5 5 8 27 29 36 32 85 78 5 5 35 100 66 98 84 5 0 4 5
100 97 100 100 100 98 100 100 100 100 73 72 100 82 69 100 91 63 77 32 31 6 5 5 5 5 5 15 5 5 10 8 99 36 5 64 6 100 99 65 84 5 0 5 5
100 100 100 100 100 97 100 100 100 97 76 82 100 95 100 95 100 93 76 100 80 79 78 5 5 12 16 48 48 32 6 6 8 69 89 100 94 100 92 100 8 5 5 5 5
100 100 100 100 100 100 100 100 100 100 100 91 98 100 66 69 81 29 26 14 95 81 100 6 5 27 17 5 5 5 5 5 5 40 91 99 100 99 100 20 93 5 5 5 5
100 100 100 100 100 100 100 100 100 100 100 100 100 77 83 99 100 100 6 5 7 92 100 65 6 20 23 5 5 5 5 5 42 6 48 100 98 100 39 98 6 5 4 5 5
100 100 100 100 100 100 100 100 100 100 100 100 100 100 100 100 100 50 6 5 37 26 100 61 5 93 59 5 5 5 5 6 11 5 6 47 100 93 100 31 5 5 5 5 5
100 100 100 100 100 100 100 100 100 100 100 100 100 100 100 100 72 54 17 6 69 63 99 47 22 100 5 55 5 5 5 5 26 5 22 43 56 65 96 5 34 5 5 6 4